Orbital Elements at Epoch 2459200.5 (2020-Dec-17.0) TDB
Reference: JPL 5 (heliocentric ecliptic J2000)
Element | Value | Uncertainty (1-sigma) | Units |
e | .2563909059605604 | 0.0004772 | |
a | .9477632328054558 | 9.5975e-05 | au |
q | .7047653589103555 | 0.00043142 | au |
i | 1.579029628313393 | 0.0036459 | deg |
node | 270.8151919288766 | 0.0063479 | deg |
peri | 53.40332234295753 | 0.02266 | deg |
M | 242.4480068053782 | 0.35061 | deg |
tp | 2459310.546366768588 (2021-Apr-06.04636677) | 0.34478 | TDB |
period | 337.0142092878118 0.92 | 0.051191 0.0001402 | d yr |
n | 1.068204218334777 | 0.00016226 | deg/d |
Q | 1.190761106700556 | 0.00012058 | au |
|
| | Orbit Determination Parameters
Additional Information
|